Location: Central Falls
(41.8900°N, 71.3929°W)
Time: 08:30:37
(UTC+00:00)

Altair - Pass Details

Date: 10 December 2023
Orbit: 1501 x 1682 km, 47.2° (Epoch: 29 February)

Event Time Altitude Azimuth Distance (km) Brightness Sun altitude
Rises 15:03:10 0° 283° (WNW) 4,800 9.8 21.6°
Reaches altitude 10° 15:06:22 10° 286° (WNW) 3,789 9.3 21.8°
Maximum altitude 15:15:53 66° 8° (N) 1,662 7.8 22.4°
Drops below altitude 10° 15:25:05 10° 90° (E) 3,668 9.8 23.0°
Sets 15:28:08 0° 94° (E) 4,639 10.3 23.2°
